Weather History for KHHF - February, 2014

Change the Weather History Date:

Monday, February 17, 2014

  Actual Average (KPPA) Record (KPPA)
Temperature  
Mean Temperature 52 °F -  
Max Temperature 62 °F 50 °F 75 °F (1991)
Min Temperature 41 °F 25 °F 6 °F (1993)
Degree Days  
Heating Degree Days 14    
Growing Degree Days 2 (Base 50)    
Moisture  
Dew Point 20 °F    
Average Humidity 29    
Maximum Humidity 52    
Minimum Humidity 13    
Precipitation  
Precipitation 0.00 in - - ()
Sea Level Pressure  
Sea Level Pressure 30.09 in    
Wind  
Wind Speed 9 mph (NW)    
Max Wind Speed 21 mph    
Max Gust Speed 32 mph    
Visibility 10 miles    
Events      
Averages and records for this station are not official NWS values.
T = Trace of Precipitation, MM = Missing Value Source: NWS Daily Summary

Daily Weather History Graph

Daily Weather History Graph

Search for Another Location

Airport or City:

Trip Planner

Search our weather history database for the weather conditions in past years. The results will help you decide how hot, cold, wet, or windy it might be!

Date:

Astronomy

Feb. 17, 2014 Rise Set
Actual Time 7:26 AM CST 6:25 PM CST
Civil Twilight 7:00 AM CST 6:51 PM CST
Nautical Twilight 6:30 AM CST 7:21 PM CST
Astronomical Twilight 6:00 AM CST 7:51 PM CST
Moon 9:14 PM CST (2/17) 8:34 AM CST (2/17)
Length of Visible Light 11h 51m
Length of Day
10h 58m
Waning Gibbous, 93% of the Moon is Illuminated
Feb 17
Waning Gibbous
Feb 22
Last Quarter
Mar 1
New
Mar 8
First Quarter
Mar 16
Full

Hourly Weather History & Observations

Time (CST) Temp. Windchill Dew Point Humidity Pressure Visibility Wind Dir Wind Speed Gust Speed Precip Events Conditions
12:15 AM 53.1 °F - 32.0 °F 45% 29.77 in 10.0 mi Calm Calm - N/A   Clear
12:35 AM 50.0 °F - 32.2 °F 50% 29.79 in 10.0 mi Calm Calm - N/A   Clear
12:55 AM 50.5 °F - 30.6 °F 46% 29.79 in 10.0 mi Calm Calm - N/A   Clear
1:15 AM 48.7 °F - 32.0 °F 52% 29.80 in 10.0 mi Calm Calm - N/A   Clear
1:35 AM 61.0 °F - 24.6 °F 25% 29.81 in 10.0 mi West 10.4 mph - N/A   Clear
1:55 AM 62.1 °F - 23.7 °F 23% 29.82 in 10.0 mi West 13.8 mph - N/A   Clear
2:15 AM 56.5 °F - 26.6 °F 32% 29.89 in 10.0 mi NNW 19.6 mph 32.2 mph N/A   Clear
2:35 AM 57.6 °F - 27.3 °F 31% 29.91 in 10.0 mi NNW 17.3 mph 24.2 mph N/A   Clear
2:55 AM 55.0 °F - 28.4 °F 36% 29.93 in 10.0 mi NNW 12.7 mph 21.9 mph N/A   Clear
3:15 AM 53.8 °F - 29.1 °F 39% 29.94 in 10.0 mi NNW 12.7 mph 23.0 mph N/A   Clear
3:35 AM 52.3 °F - 29.5 °F 42% 29.96 in 10.0 mi NNW 15.0 mph - N/A   Clear
3:55 AM 51.8 °F - 29.1 °F 42% 29.99 in 10.0 mi NNW 12.7 mph 18.4 mph N/A   Clear
4:15 AM 50.7 °F - 29.3 °F 44% 30.01 in 10.0 mi NNW 12.7 mph 17.3 mph N/A   Clear
4:35 AM 50.0 °F - 29.1 °F 45% 30.03 in 10.0 mi NNW 10.4 mph - N/A   Clear
4:55 AM 50.0 °F - 27.9 °F 42% 30.05 in 10.0 mi NNW 10.4 mph 16.1 mph N/A   Clear
5:15 AM 50.0 °F - 26.2 °F 40% 30.06 in 10.0 mi NNW 10.4 mph - N/A   Clear
5:35 AM 50.0 °F - 25.5 °F 39% 30.07 in 10.0 mi North 12.7 mph 20.7 mph N/A   Clear
5:55 AM 49.3 °F - 24.8 °F 38% 30.08 in 10.0 mi North 18.4 mph 25.3 mph N/A   Clear
6:15 AM 48.2 °F - 24.4 °F 39% 30.09 in 10.0 mi North 18.4 mph 24.2 mph N/A   Clear
6:35 AM 47.3 °F - 24.3 °F 40% 30.11 in 10.0 mi North 17.3 mph 21.9 mph N/A   Clear
6:55 AM 47.3 °F - 23.0 °F 38% 30.12 in 10.0 mi North 20.7 mph 24.2 mph N/A   Clear
7:15 AM 46.2 °F 39.3 °F 22.1 °F 39% 30.12 in 10.0 mi North 17.3 mph 23.0 mph N/A   Clear
7:35 AM 45.1 °F 39.1 °F 21.9 °F 40% 30.14 in 10.0 mi North 12.7 mph - N/A   Clear
7:55 AM 44.6 °F 39.7 °F 21.6 °F 40% 30.15 in 10.0 mi NNW 9.2 mph - N/A   Clear
8:15 AM 44.8 °F 39.4 °F 21.6 °F 40% 30.16 in 10.0 mi North 10.4 mph - N/A   Clear
8:35 AM 44.6 °F 39.2 °F 22.6 °F 42% 30.17 in 10.0 mi NNW 10.4 mph - N/A   Clear
8:55 AM 45.7 °F 40.6 °F 22.6 °F 40% 30.18 in 10.0 mi North 10.4 mph - N/A   Clear
9:15 AM 47.5 °F - 22.6 °F 38% 30.19 in 10.0 mi North 11.5 mph 19.6 mph N/A   Clear
9:35 AM 49.1 °F - 23.0 °F 36% 30.19 in 10.0 mi North 12.7 mph 17.3 mph N/A   Clear
9:55 AM 50.9 °F - 21.7 °F 32% 30.19 in 10.0 mi North 11.5 mph 24.2 mph N/A   Clear
10:15 AM 52.9 °F - 19.6 °F 27% 30.19 in 10.0 mi North 16.1 mph 24.2 mph N/A   Clear
10:35 AM 54.0 °F - 18.3 °F 25% 30.19 in 10.0 mi North 19.6 mph 24.2 mph N/A   Clear
10:55 AM 54.7 °F - 18.5 °F 24% 30.19 in 10.0 mi North 16.1 mph 25.3 mph N/A   Clear
11:15 AM 55.6 °F - 19.0 °F 24% 30.20 in 10.0 mi North 15.0 mph 20.7 mph N/A   Clear
11:35 AM 55.6 °F - 18.1 °F 23% 30.20 in 10.0 mi North 16.1 mph 20.7 mph N/A   Clear
11:55 AM 56.3 °F - 18.5 °F 23% 30.20 in 10.0 mi North 13.8 mph 17.3 mph N/A   Clear
12:15 PM 57.2 °F - 16.7 °F 21% 30.20 in 10.0 mi North 8.1 mph 18.4 mph N/A   Clear
12:35 PM 57.6 °F - 17.2 °F 21% 30.20 in 10.0 mi North 8.1 mph 11.5 mph N/A   Clear
12:55 PM 57.7 °F - 14.9 °F 19% 30.19 in 10.0 mi North 10.4 mph - N/A   Clear
1:15 PM 57.6 °F - 13.5 °F 18% 30.18 in 10.0 mi North 6.9 mph - N/A   Clear
1:35 PM 58.3 °F - 13.6 °F 17% 30.17 in 10.0 mi North 5.8 mph - N/A   Clear
1:55 PM 59.0 °F - 14.2 °F 17% 30.17 in 10.0 mi North 4.6 mph - N/A   Clear
2:15 PM 59.0 °F - 15.1 °F 18% 30.16 in 10.0 mi NNW 4.6 mph - N/A   Clear
2:35 PM 59.7 °F - 12.6 °F 16% 30.15 in 10.0 mi North 5.8 mph - N/A   Clear
2:55 PM 60.3 °F - 12.6 °F 15% 30.14 in 10.0 mi North 3.5 mph - N/A   Clear
3:15 PM 60.4 °F - 12.9 °F 16% 30.14 in 10.0 mi Calm Calm - N/A   Clear
3:35 PM 61.0 °F - 12.4 °F 15% 30.14 in 10.0 mi NE 4.6 mph - N/A   Clear
3:55 PM 60.8 °F - 11.7 °F 15% 30.14 in 10.0 mi SSW 3.5 mph - N/A   Clear
4:15 PM 61.3 °F - 9.7 °F 13% 30.13 in 10.0 mi Calm Calm - N/A   Clear
4:35 PM 61.5 °F - 10.9 °F 14% 30.13 in 10.0 mi SW 4.6 mph - N/A   Clear
4:55 PM 61.7 °F - 11.3 °F 14% 30.12 in 10.0 mi SSE 3.5 mph - N/A   Clear
5:15 PM 61.9 °F - 9.9 °F 13% 30.12 in 10.0 mi South 4.6 mph - N/A   Clear
5:35 PM 61.3 °F - 9.0 °F 13% 30.12 in 10.0 mi South 8.1 mph - N/A   Clear
5:55 PM 59.5 °F - 9.7 °F 14% 30.12 in 10.0 mi South 5.8 mph - N/A   Clear
6:15 PM 56.3 °F - 11.8 °F 17% 30.11 in 10.0 mi SSE 3.5 mph - N/A   Clear
6:35 PM 54.0 °F - 13.6 °F 20% 30.11 in 10.0 mi SSE 5.8 mph - N/A   Clear
6:55 PM 51.3 °F - 15.4 °F 24% 30.11 in 10.0 mi South 5.8 mph - N/A   Clear
7:15 PM 50.4 °F - 15.6 °F 25% 30.11 in 10.0 mi SSE 6.9 mph - N/A   Clear
7:35 PM 45.1 °F 42.0 °F 16.7 °F 32% 30.11 in 10.0 mi SSE 5.8 mph - N/A   Clear
7:55 PM 49.1 °F - 16.5 °F 27% 30.11 in 10.0 mi South 6.9 mph - N/A   Clear
8:15 PM 45.1 °F - 17.6 °F 33% 30.12 in 10.0 mi Calm Calm - N/A   Clear
8:35 PM 41.0 °F 37.1 °F 18.9 °F 41% 30.12 in 10.0 mi SW 5.8 mph - N/A   Clear
8:55 PM 41.0 °F 35.8 °F 19.0 °F 41% 30.11 in 10.0 mi SW 8.1 mph - N/A   Clear
9:15 PM 43.7 °F 41.1 °F 17.8 °F 35% 30.11 in 10.0 mi WSW 4.6 mph - N/A   Clear
9:35 PM 42.4 °F 39.6 °F 17.8 °F 37% 30.11 in 10.0 mi WSW 4.6 mph - N/A   Clear
9:55 PM 48.9 °F - 16.5 °F 28% 30.10 in 10.0 mi SSW 10.4 mph - N/A   Clear
10:15 PM 48.0 °F - 16.2 °F 28% 30.09 in 10.0 mi SSW 9.2 mph - N/A   Clear
10:35 PM 49.6 °F - 15.4 °F 26% 30.08 in 10.0 mi SSW 16.1 mph - N/A   Clear
10:55 PM 50.2 °F - 14.9 °F 25% 30.07 in 10.0 mi SSW 15.0 mph - N/A   Clear
11:15 PM 50.0 °F - 15.4 °F 25% 30.07 in 10.0 mi SSW 13.8 mph - N/A   Clear
11:35 PM 50.2 °F - 15.8 °F 26% 30.06 in 10.0 mi SW 13.8 mph - N/A   Clear
11:55 PM 52.5 °F - 14.5 °F 22% 30.05 in 10.0 mi SSW 16.1 mph 24.2 mph N/A   Clear